[[{"header":{"parameterUnit":"m.s-1","parameterCategory":1,"la1":30.2991,"la2":30.254,"lo1":-89.0895,"lo2":-89.0444,"dy":0.0017,"dx":0.0017,"nx":28,"ny":28,"refTime":"2023-09-17T09:00:00:Z","depth":0,"parameterNumber":2,"parameterNumberName":"U-component_of_WINDS"},"data":[0,0,0,0,0,0,0,0,0,0,0,0,0,0,0,0,0,0,0,0,0,0,0,0,0,0,0,0,0,0,0,0,0,0,0,0,0,0,0,0,0,0,0,0,0,0,0,0,0,0,0,0,0,0,0,0,0,0,-0.3583,-0.3584,0,-0.3624,-0.3624,-0.3625,-0.3577,-0.3575,-0.3573,-0.3571,-0.3615,-0.3618,-0.3621,0,0,0,0,0,0,0,0,0,0,0,0,0,-0.3467,-0.3469,-0.3583,-0.3584,-0.3584,-0.3624,-0.3624,-0.3625,-0.3577,-0.3575,-0.3572,-0.357,-0.3614,-0.3618,-0.3621,0,0,0,0,0,0,0,0,0,0,0,0,0,-0.3514,-0.347,-0.3583,-0.3565,-0.3564,-0.3623,-0.3624,-0.3625,-0.3577,-0.3575,-0.3572,-0.3569,-0.3613,-0.3617,-0.3621,-0.3701,0,0,-0.3634,-0.3636,0,0,0,0,0,0,0,0,-0.3511,-0.3518,-0.3567,-0.3566,-0.3565,-0.3592,-0.3599,-0.3651,-0.3578,-0.3572,-0.3571,-0.3568,-0.361,-0.3614,-0.3628,-0.3704,-0.3705,-0.3635,-0.3637,-0.3639,-0.364,0,0,0,0,0,0,0,-0.3508,-0.3516,-0.3599,-0.3568,-0.3567,-0.3556,-0.3559,-0.3609,-0.3606,-0.3573,-0.3569,-0.3574,-0.3609,-0.3624,-0.3628,-0.3706,-0.3635,-0.3638,-0.3641,-0.3643,-0.385,-0.3853,0,0,0,0,0,0,-0.3506,-0.3514,-0.3598,-0.36,-0.3531,-0.356,-0.3564,-0.3586,-0.3605,-0.3605,-0.3577,-0.3572,-0.3618,-0.3624,-0.363,-0.3726,-0.3639,-0.3643,-0.3646,-0.3847,-0.3851,-0.3854,0,0,0,0,0,0,-0.3504,-0.3514,-0.3596,-0.3556,-0.3566,-0.3565,-0.359,-0.3589,-0.3603,-0.3608,-0.3608,-0.3593,-0.3616,-0.3624,-0.3684,-0.3727,-0.3645,-0.3649,-0.3844,-0.3848,-0.3852,-0.3918,0,0,0,0,0,0,-0.3501,-0.3514,-0.3544,-0.3557,-0.3568,-0.365,-0.3593,-0.3591,-0.3611,-0.3605,-0.3623,-0.3623,-0.3614,-0.3678,-0.3688,-0.3731,-0.3652,-0.384,-0.3846,-0.3851,-0.3912,-0.3924,-0.3934,0,0,0,0,0,-0.3497,-0.3561,-0.3546,-0.3556,-0.3605,-0.3652,-0.3659,-0.3646,-0.3614,-0.3645,-0.3648,-0.3623,-0.372,-0.3684,-0.3696,-0.374,-0.3837,-0.3844,-0.385,-0.3907,-0.3922,-0.3934,0,0,0,0,0,0,-0.3554,-0.3563,-0.3546,-0.3616,-0.3634,-0.3644,-0.3682,-0.3662,-0.369,-0.3684,-0.3668,-0.3672,-0.3737,-0.3744,-0.3705,-0.3819,-0.3773,-0.3782,-0.3812,-0.3826,-0.3837,-0.3835,-0.3656,0,0,0,0,0,-0.3575,-0.3611,-0.3617,-0.3678,-0.3688,-0.3684,-0.3704,-0.3692,-0.3711,-0.3718,-0.3725,-0.3745,-0.3779,-0.3803,-0.3835,-0.3912,-0.3916,-0.3948,-0.3959,-0.3968,-0.3977,-0.4019,-0.4034,-0.3876,-0.3876,-0.3875,0,0,-0.3619,-0.3627,-0.3652,-0.369,-0.3703,-0.3742,-0.3691,-0.3734,-0.3763,-0.3725,-0.3783,-0.3788,-0.3809,-0.3878,-0.3908,-0.3886,-0.4021,-0.3977,-0.3984,-0.3988,-0.4028,-0.4043,-0.4056,-0.388,-0.3879,-0.3879,0,0,-0.3718,-0.3728,-0.3781,-0.3794,-0.3813,-0.3809,-0.3822,-0.3835,-0.3837,-0.3894,-0.3867,-0.3901,-0.3961,-0.3977,-0.3993,-0.4097,-0.4076,-0.4108,-0.4167,-0.4209,-0.4221,-0.4232,-0.4271,-0.4285,-0.4116,-0.4116,-0.4116,0,-0.3771,-0.3828,-0.3811,-0.3856,-0.3874,-0.384,-0.3894,-0.3908,-0.3937,-0.395,-0.3924,-0.3998,-0.4009,-0.4082,-0.4108,-0.4121,-0.4136,-0.4107,-0.422,-0.4231,-0.4242,-0.4279,-0.4293,-0.412,-0.412,-0.4119,-0.4119,0,-0.3892,-0.3931,-0.3972,-0.4,-0.4022,-0.4072,-0.4063,-0.4088,-0.4074,-0.4074,-0.4132,-0.4144,-0.4178,-0.4194,-0.4182,-0.4265,-0.4251,-0.4223,-0.4177,-0.4261,-0.4296,-0.4309,-0.4126,-0.4125,-0.4123,-0.4122,0,0,-0.4031,-0.4048,-0.4063,-0.4076,-0.4094,-0.4125,-0.4172,-0.4205,-0.4227,-0.4247,-0.4288,-0.4339,-0.4313,-0.4331,-0.4319,-0.4355,-0.4439,-0.4323,-0.4323,-0.4346,-0.4534,-0.4557,-0.4573,-0.4423,-0.4426,-0.4428,-0.4533,0,-0.4133,-0.4215,-0.4201,-0.4281,-0.4319,-0.4286,-0.4327,-0.4343,-0.4343,-0.4376,-0.4376,-0.4413,-0.4374,-0.4385,-0.4419,-0.4422,-0.4477,-0.4413,-0.4463,-0.4465,-0.4462,-0.4591,-0.4616,-0.4714,-0.4546,-0.4548,-0.455,0,-0.4263,-0.4287,-0.4372,-0.4383,-0.4398,-0.4436,-0.4465,-0.4495,-0.4512,-0.451,-0.453,-0.4511,-0.456,-0.4511,-0.4578,-0.4535,-0.4554,-0.4558,-0.4562,-0.4568,-0.4514,-0.4603,-0.4745,-0.4761,-0.457,-0.4569,-0.4567,0,-0.4359,-0.4413,-0.447,-0.4481,-0.4496,-0.4524,-0.4531,-0.4545,-0.4566,-0.4591,-0.4604,-0.4634,-0.4652,-0.4676,-0.4666,-0.4631,-0.4736,-0.4686,-0.4737,-0.4737,-0.4763,-0.4762,-0.4912,-0.4771,-0.4771,-0.477,-0.477,0,-0.4475,-0.4529,-0.4513,-0.4549,-0.4608,-0.4591,-0.465,-0.4653,-0.4666,-0.4702,-0.4674,-0.4709,-0.4693,-0.4727,-0.472,-0.4778,-0.4785,-0.4785,-0.4783,-0.479,-0.479,-0.4804,-0.4798,-0.4774,-0.4773,-0.4773,-0.4772,0,-0.4594,-0.4585,-0.4646,-0.4654,-0.4658,-0.4701,-0.4708,-0.4742,-0.4739,-0.4785,-0.4795,-0.4792,-0.483,-0.4822,-0.4864,-0.4859,-0.4932,-0.492,-0.4927,-0.4925,-0.4977,-0.4973,-0.5143,-0.5165,-0.5008,-0.5009,-0.501,0,-0.467,-0.471,-0.4722,-0.4744,-0.4753,-0.4789,-0.4809,-0.4793,-0.4816,-0.4838,-0.4869,-0.4905,-0.4933,-0.4996,-0.4997,-0.5029,-0.502,-0.5077,-0.5025,-0.503,-0.5023,-0.5022,-0.5027,-0.5088,-0.509,-0.5092,-0.5093,0,-0.4807,-0.48,-0.483,-0.4859,-0.4884,-0.4906,-0.4926,-0.4945,-0.4931,-0.4958,-0.4996,-0.5018,-0.506,-0.5096,-0.5126,-0.5134,-0.5112,-0.5109,-0.5123,-0.5131,-0.5134,-0.5135,-0.4958,-0.5106,-0.5104,-0.5103,-0.5103,-0.5102,-0.4908,-0.4942,-0.4956,-0.4991,-0.5003,-0.5022,-0.5054,-0.5055,-0.5086,-0.512,-0.5108,-0.5152,-0.5168,-0.5205,-0.5216,-0.5251,-0.523,-0.525,-0.5255,-0.5261,-0.5268,-0.5126,-0.5256,-0.5256,-0.5255,-0.5255,-0.5255,0,-0.5045,-0.5052,-0.5084,-0.5112,-0.5139,-0.5113,-0.5133,-0.5158,-0.5197,-0.5213,-0.5241,-0.5285,-0.532,-0.5323,-0.5356,-0.5383,-0.5374,-0.5393,-0.5392,-0.5395,-0.5284,-0.527,-0.54,-0.54,-0.54,-0.54,-0.54,-0.54,-0.512,-0.5177,-0.5173,-0.5236,-0.5242,-0.5285,-0.5299,-0.5316,-0.5329,-0.5379,-0.5408,-0.5409,-0.542,-0.5453,-0.5484,-0.5484,-0.5499,-0.5522,-0.5519,-0.5416,-0.5402,-0.5388,-0.5375,-0.5525,-0.5525,-0.5626,-0.5627,-0.5628]},{"header":{"parameterUnit":"m.s-1","parameterCategory":1,"la1":30.2991,"la2":30.254,"lo1":-89.0895,"lo2":-89.0444,"dy":0.0017,"dx":0.0017,"nx":28,"ny":28,"refTime":"2023-09-17T09:00:00:Z","depth":0,"parameterNumber":3,"parameterNumberName":"V-component_of_WINDS"},"data":[0,0,0,0,0,0,0,0,0,0,0,0,0,0,0,0,0,0,0,0,0,0,0,0,0,0,0,0,0,0,0,0,0,0,0,0,0,0,0,0,0,0,0,0,0,0,0,0,0,0,0,0,0,0,0,0,0,0,-3.7895,-3.7896,0,-3.7979,-3.798,-3.7981,-3.7929,-3.7927,-3.7924,-3.7922,-3.8005,-3.801,-3.8014,0,0,0,0,0,0,0,0,0,0,0,0,0,-3.7686,-3.769,-3.7895,-3.7896,-3.7897,-3.7979,-3.798,-3.7981,-3.7929,-3.7927,-3.7924,-3.7921,-3.8004,-3.8009,-3.8014,0,0,0,0,0,0,0,0,0,0,0,0,0,-3.7774,-3.7691,-3.7894,-3.7881,-3.7881,-3.7979,-3.798,-3.7981,-3.793,-3.7926,-3.7923,-3.7919,-3.8002,-3.8008,-3.8015,-3.813,0,0,-3.8036,-3.8039,0,0,0,0,0,0,0,0,-3.7769,-3.7781,-3.7882,-3.7882,-3.7882,-3.794,-3.7937,-3.8031,-3.7931,-3.7911,-3.7922,-3.7918,-3.7986,-3.7994,-3.8018,-3.8134,-3.8138,-3.8036,-3.804,-3.8043,-3.8045,0,0,0,0,0,0,0,-3.7763,-3.7778,-3.7928,-3.7883,-3.7883,-3.787,-3.7878,-3.7954,-3.7968,-3.7913,-3.7909,-3.792,-3.7985,-3.8011,-3.8019,-3.8139,-3.8036,-3.8042,-3.8046,-3.8049,-3.8354,-3.8357,0,0,0,0,0,0,-3.7758,-3.7773,-3.7925,-3.793,-3.7815,-3.7876,-3.7886,-3.7925,-3.7967,-3.797,-3.7923,-3.7917,-3.8002,-3.8012,-3.8022,-3.816,-3.8043,-3.805,-3.8053,-3.835,-3.8354,-3.8359,0,0,0,0,0,0,-3.7754,-3.7772,-3.7922,-3.7851,-3.7869,-3.7884,-3.7928,-3.7928,-3.7954,-3.7975,-3.7977,-3.7947,-3.7999,-3.8013,-3.8104,-3.8162,-3.8053,-3.8059,-3.8345,-3.8351,-3.8357,-3.8436,0,0,0,0,0,0,-3.7748,-3.7771,-3.7816,-3.7852,-3.7873,-3.8004,-3.7932,-3.7933,-3.7967,-3.796,-3.7998,-3.8001,-3.7997,-3.8094,-3.8111,-3.8169,-3.8064,-3.834,-3.8348,-3.8355,-3.8428,-3.8444,-3.8457,0,0,0,0,0,-3.7741,-3.7834,-3.7818,-3.7837,-3.7929,-3.8007,-3.8019,-3.8013,-3.7971,-3.8016,-3.8029,-3.8,-3.8153,-3.8104,-3.8122,-3.8183,-3.8336,-3.8345,-3.8354,-3.8421,-3.844,-3.8457,0,0,0,0,0,0,-3.7803,-3.7838,-3.7821,-3.7929,-3.7966,-3.7998,-3.8054,-3.8034,-3.8082,-3.8073,-3.8063,-3.8073,-3.8168,-3.8185,-3.813,-3.8297,-3.8238,-3.8251,-3.8282,-3.8301,-3.8315,-3.8309,-3.807,0,0,0,0,0,-3.7829,-3.7891,-3.7918,-3.801,-3.803,-3.8039,-3.8073,-3.8065,-3.8102,-3.8117,-3.8137,-3.8173,-3.8228,-3.8266,-3.8318,-3.843,-3.8437,-3.8481,-3.8496,-3.8507,-3.8519,-3.8579,-3.8598,-3.8389,-3.8389,-3.8388,0,0,-3.7884,-3.7911,-3.795,-3.8024,-3.8051,-3.8113,-3.8052,-3.8121,-3.8167,-3.8127,-3.8215,-3.8231,-3.827,-3.8372,-3.8418,-3.8389,-3.8578,-3.8519,-3.8528,-3.8533,-3.859,-3.861,-3.8628,-3.8395,-3.8394,-3.8393,0,0,-3.8016,-3.8043,-3.8123,-3.8152,-3.8194,-3.82,-3.8219,-3.8255,-3.8264,-3.8352,-3.8323,-3.8377,-3.8474,-3.8503,-3.8531,-3.8674,-3.8649,-3.8692,-3.8768,-3.8826,-3.8843,-3.8857,-3.8908,-3.8926,-3.8703,-3.8703,-3.8703,0,-3.8079,-3.8173,-3.8166,-3.8238,-3.8271,-3.8238,-3.8319,-3.8346,-3.8404,-3.8426,-3.8393,-3.8514,-3.8538,-3.8647,-3.8682,-3.8705,-3.8726,-3.8687,-3.8841,-3.8856,-3.8869,-3.8917,-3.8936,-3.8708,-3.8707,-3.8707,-3.8706,0,-3.8248,-3.8313,-3.8373,-3.843,-3.8469,-3.8545,-3.8549,-3.8589,-3.8579,-3.8588,-3.8677,-3.8705,-3.8763,-3.8788,-3.8778,-3.8895,-3.8876,-3.8842,-3.8782,-3.8894,-3.8939,-3.8958,-3.8715,-3.8713,-3.8712,-3.8711,0,0,-3.8421,-3.8474,-3.8496,-3.8521,-3.8566,-3.8616,-3.8689,-3.8747,-3.8782,-3.8822,-3.8883,-3.8966,-3.8935,-3.8966,-3.8959,-3.9011,-3.9122,-3.8971,-3.8971,-3.8998,-3.9252,-3.9277,-3.9299,-3.9106,-3.9109,-3.9112,-3.9249,0,-3.8555,-3.8685,-3.8682,-3.8802,-3.8862,-3.8832,-3.8896,-3.893,-3.894,-3.8992,-3.9003,-3.9062,-3.9017,-3.9035,-3.9085,-3.9098,-3.9173,-3.9088,-3.9161,-3.9164,-3.9152,-3.9322,-3.9349,-3.9477,-3.9266,-3.9269,-3.9272,0,-3.873,-3.8777,-3.8904,-3.894,-3.8965,-3.9023,-3.9075,-3.9125,-3.9162,-3.9166,-3.9201,-3.9186,-3.9259,-3.9198,-3.9299,-3.9241,-3.9271,-3.9282,-3.9287,-3.9293,-3.9224,-3.9333,-3.9518,-3.9537,-3.9299,-3.9297,-3.9295,0,-3.8843,-3.8939,-3.9027,-3.905,-3.9093,-3.9134,-3.9154,-3.9188,-3.9223,-3.9268,-3.929,-3.9343,-3.9372,-3.9413,-3.9412,-3.9368,-3.9514,-3.9453,-3.9519,-3.9519,-3.9551,-3.9549,-3.9742,-3.957,-3.957,-3.957,-3.9569,0,-3.8994,-3.9073,-3.9078,-3.9133,-3.922,-3.9214,-3.93,-3.9316,-3.9346,-3.9402,-3.9379,-3.9432,-3.9427,-3.948,-3.948,-3.9563,-3.9576,-3.9581,-3.958,-3.9583,-3.9582,-3.9602,-3.9593,-3.9575,-3.9574,-3.9573,-3.9572,0,-3.9135,-3.9143,-3.9237,-3.9271,-3.9281,-3.9343,-3.9372,-3.9423,-3.9431,-3.9502,-3.9518,-3.9531,-3.9592,-3.9596,-3.9666,-3.9665,-3.9767,-3.9756,-3.9755,-3.9753,-3.9818,-3.9812,-4.0031,-4.0059,-3.9869,-3.9871,-3.9873,0,-3.9231,-3.9291,-3.9331,-3.9368,-3.9391,-3.9449,-3.9485,-3.9481,-3.9519,-3.9566,-3.9612,-3.9671,-3.9718,-3.9817,-3.9832,-3.9885,-3.9875,-3.9949,-3.9883,-3.9885,-3.9876,-3.9873,-3.9878,-3.9961,-3.9963,-3.9965,-3.9966,0,-3.94,-3.94,-3.9453,-3.9508,-3.9551,-3.9593,-3.9633,-3.9663,-3.9664,-3.9708,-3.9771,-3.9808,-3.988,-3.9939,-3.9991,-4.001,-3.9989,-3.9987,-4.0005,-4.0009,-4.0006,-4.0008,-3.9789,-3.9982,-3.998,-3.9979,-3.9978,-3.9978,-3.9521,-3.9573,-3.961,-3.9669,-3.9698,-3.9736,-3.9786,-3.98,-3.9853,-3.9912,-3.9907,-3.9977,-4.0012,-4.008,-4.0103,-4.0157,-4.0132,-4.0158,-4.0164,-4.0171,-4.0178,-3.9997,-4.0166,-4.0166,-4.0165,-4.0165,-4.0165,0,-3.9688,-3.9711,-3.9765,-3.9822,-3.9868,-3.9845,-3.9887,-3.9928,-3.999,-4.0025,-4.0072,-4.0144,-4.0201,-4.0221,-4.0276,-4.0315,-4.0306,-4.033,-4.0326,-4.0331,-4.0197,-4.0176,-4.0336,-4.0336,-4.0336,-4.0335,-4.0335,-4.0335,-3.9781,-3.9867,-3.9873,-3.9973,-3.9994,-4.0064,-4.009,-4.0124,-4.0152,-4.0234,-4.0281,-4.0294,-4.0323,-4.038,-4.0431,-4.0435,-4.0456,-4.0483,-4.0483,-4.0358,-4.0341,-4.0324,-4.0304,-4.0488,-4.0488,-4.0613,-4.0614,-4.0615]}]]